Location: Campos dos Goitacazes
(21.7500°S, 41.3000°W)
Time: 12:26:56
(UTC-03:00)

Tiangong - Pass Details

Date: 26 June 2024
Orbit: 374 x 378 km, 41.5° (Epoch: 16 July)

Event Time Altitude Azimuth Distance (km) Brightness Sun altitude
Exits shadow 05:41:44 15° 244° (WSW) 1,157 -0.4 -9.8°
Maximum altitude 05:44:13 53° 320° (NW) 469 -1.8 -9.3°
Drops below altitude 10° 05:47:16 10° 38° (NE) 1,386 1.7 -8.6°
Sets 05:49:21 0° 43° (NE) 2,234 3.1 -8.2°
